This is the latest recevied weather packets stored in our database for station/object WK7G. If no packets are shown the sender has not sent any weather packets the latest 10 day(s).
| Time | Temp. | Humidity | Pressure | Rain* | Wind** | Luminosity | Snow |
|---|---|---|---|---|---|---|---|
| 1778182486 | 16.11° C | 46% | 1008.1 hPa | 0 mm | - | 449 W/m² | - |
| 1778182183 | 16.11° C | 45% | 1008.3 hPa | 0 mm | - | 468 W/m² | - |
| 1778181879 | 15.56° C | 44% | 1008.2 hPa | 0 mm | - | 409 W/m² | - |
| 1778181576 | 16.67° C | 46% | 1008.5 hPa | 0 mm | - | 632 W/m² | - |
| 1778181272 | 17.22° C | 45% | 1008.5 hPa | 0 mm | - | 762 W/m² | - |
| 1778180968 | 16.67° C | 44% | 1008.3 hPa | 0 mm | - | 744 W/m² | - |
| 1778180666 | 16.11° C | 44% | 1008.5 hPa | 0 mm | - | 941 W/m² | - |
| 1778180365 | 16.11° C | 46% | 1008.7 hPa | 0 mm | - | 701 W/m² | - |
| 1778180062 | 16.67° C | 43% | 1008.6 hPa | 0 mm | - | 691 W/m² | - |
| 1778179759 | 16.67° C | 44% | 1008.8 hPa | 0 mm | - | 727 W/m² | - |
| 1778179457 | 16.67° C | 45% | 1008.5 hPa | 0 mm | - | 760 W/m² | - |
| 1778179154 | 16.67° C | 44% | 1008.6 hPa | 0 mm | - | 788 W/m² | - |
| 1778178851 | 15.56° C | 46% | 1008.8 hPa | 0 mm | - | 721 W/m² | - |
| 1778178548 | 16.11° C | 45% | 1008.8 hPa | 0 mm | - | 580 W/m² | - |
| 1778178243 | 16.11° C | 45% | 1008.5 hPa | 0 mm | - | 789 W/m² | - |
| 1778177940 | 15.56° C | 45% | 1009.2 hPa | 0 mm | - | 740 W/m² | - |
| 1778177636 | 15.56° C | 46% | 1009.3 hPa | 0 mm | - | 645 W/m² | - |
| 1778177333 | 15.56° C | 48% | 1009.1 hPa | 0 mm | - | 499 W/m² | - |
| 1778177030 | 15° C | 45% | 1009.1 hPa | 0 mm | - | 405 W/m² | - |
| 1778176726 | 15.56° C | 48% | 1009.3 hPa | 0 mm | - | 903 W/m² | - |
| 1778176423 | 15.56° C | 47% | 1008.9 hPa | 0 mm | - | 563 W/m² | - |
| 1778176121 | 15° C | 47% | 1009.4 hPa | 0 mm | - | 470 W/m² | - |
| 1778175818 | 14.44° C | 47% | 1009.1 hPa | 0 mm | - | 328 W/m² | - |
| 1778175515 | 15° C | 47% | 1009.1 hPa | 0 mm | - | 337 W/m² | - |
| 1778175212 | 15.56° C | 47% | 1009.1 hPa | 0 mm | - | 563 W/m² | - |
* Rain latest hour (hover to see other rain measurements)
** Current wind speed in m/s (hover to see current wind gust speed)